Flag for U.S.A. Weather past 2 weeks in New City, New York, U.S.A.

Now
50 °F

Rain. Mostly cloudy.


Feels Like: 43 °F
Forecast: 49 / 53 °F
Wind: 21 mph from North

Location: Westchester County Airport

Current Time: Oct 22, 2014 at 10:24:37 PM

Latest Report: Oct 22, 2014 at 9:56 PM


Visibility: 7 mi

Pressure: 29.72 "Hg

Humidity: 89%

Dew point: 47 °F

Location of New CityLocation

Historic Weather in New City — Graph

°F

New City temperature yesterday

Maximum temperature yesterday: 64 °F (at 11:56 AM)
Minimum temperature yesterday: 48 °F (at 3:56 AM)
Average temperature yesterday: 56 °F

Past Weeks' High & Low Weather Summary

 TemperatureHumidityPressure
High75 °F (Oct 15, 2:56 PM)100% (Oct 14, 6:56 AM)30.34 "Hg (Oct 14, 6:56 AM)
Low36 °F (Oct 20, 3:56 AM)34% (Oct 9, 1:56 PM)26.00 "Hg (Oct 17, 4:20 AM)
Average58 °F73%29.95 "Hg
* Reported Oct 7 8:56 PM — Oct 22 8:56 PM, New City, Weather by CustomWeather, © 2014

Note: Actual official high and low records may vary slightly from our data, if they occured in-between our weather recording intervals... More about our weather records

Advertising

New City weather history for previous 24 hours

 ConditionsComfort  
Time TempWeatherWind HumidityBarometerVisibility
8:56 PM
Oct 22
51 °FRain. Fog.21 mph86%29.75 "Hg3 mi
7:56 PM51 °FRain. Fog.20 mph86%29.77 "Hg3 mi
6:56 PM51 °FRain. Fog.15 mph89%29.80 "Hg3 mi
5:56 PM51 °FRain. Fog.18 mph89%29.81 "Hg2 mi
4:56 PM53 °FRain. Fog.20 mph80%29.82 "Hg2 mi
3:56 PM54 °FPartly sunny.18 mph74%29.83 "Hg10 mi
2:56 PM55 °FPartly sunny.20 mph74%29.85 "Hg10 mi
1:56 PM55 °FPartly sunny.9 mph74%29.87 "Hg10 mi
12:56 PM56 °FPartly sunny.15 mph75%29.90 "Hg10 mi
11:56 AM55 °FPartly sunny.14 mph80%29.93 "Hg10 mi
10:56 AM55 °FPartly sunny.15 mph83%29.92 "Hg10 mi
9:56 AM53 °FLight rain. Fog.12 mph86%29.94 "Hg6 mi
8:56 AM53 °FLight rain. Partly sunny.12 mph86%29.94 "Hg10 mi
7:56 AM53 °FLight rain. Overcast.8 mph86%29.93 "Hg10 mi
6:56 AM53 °FPassing clouds.9 mph89%29.92 "Hg10 mi
5:56 AM54 °FPassing clouds.8 mph90%29.90 "Hg10 mi
4:56 AM54 °FPassing clouds.10 mph90%29.89 "Hg10 mi
3:56 AM55 °FLight rain. Fog.7 mph90%29.89 "Hg6 mi
2:56 AM56 °FPartly cloudy.7 mph84%29.88 "Hg10 mi
1:56 AM56 °FPartly cloudy.6 mph87%29.89 "Hg10 mi
12:56 AM55 °FPartly cloudy.8 mph87%29.90 "Hg10 mi
11:56 PM
Oct 21
54 °FPassing clouds.7 mph86%29.91 "Hg10 mi
10:56 PM54 °FPartly cloudy.6 mph90%29.91 "Hg10 mi
Weather by CustomWeather, © 2014

See weather overviewHow to use our weather pages